Regional Weather Roundup
Issued by NWS

Home | Current Version | Previous Version | Text Only | Print | Product List | Glossary On
Versions: 1 2 3 4 5 6 7 8 9 10 11 12 13 14 15 16 17 18 19 20 21 22 23 24 25 26 27 28 29 30 31 32 33 34 35 36 37 38 39 40 41 42 43 44 45 46 47 48 49 50
000
ASUS44 KFWD 261215
RWRTX
NORTH TEXAS HOURLY WEATHER ROUNDUP
NATIONAL WEATHER SERVICE FORT WORTH TX
700 AM CDT TUE JUL 26 2016

NOTE: "FAIR" INDICATES FEW OR NO CLOUDS BELOW 12,000 FEET WITH NO
SIGNIFICANT WEATHER AND/OR OBSTRUCTIONS TO VISIBILITY.

TXZ118-119-261300-
DALLAS/FORT WORTH METROPLEX

CITY           SKY/WX    TMP DP  RH WIND       PRES   REMARKS
DFW AIRPORT    MOCLDY    79  72  79 CALM      29.96R
6HR MIN TEMP:  77; 6HR MAX TEMP:  81;

DALLAS LOVE    MOCLDY    79  72  79 E3        29.96R
6HR MIN TEMP:  78; 6HR MAX TEMP:  82;

FTW MEACHAM    CLEAR     79  71  76 CALM      29.97R
6HR MIN TEMP:  77; 6HR MAX TEMP:  81;

DAL-EXECUTIVE  CLEAR     74  70  87 CALM      29.96R
6HR MIN TEMP:  74; 6HR MAX TEMP:  78;

FTW-ALLIANCE   PTCLDY    74  70  87 CALM      29.97R
6HR MIN TEMP:  72; 6HR MAX TEMP:  79;

FTW-NAS-JRB    PTCLDY    79  70  74 NE3       29.97R
6HR MIN TEMP:  77; 6HR MAX TEMP:  81;

FTW-SPINKS     CLEAR     72  70  94 CALM      29.98S
ARLINGTON      CLEAR     74  71  91 CALM      29.97R
6HR MIN TEMP:  73; 6HR MAX TEMP:  79;

GRAND PRAIRIE  CLEAR     77  72  83 CALM      29.98R
ADDISON        PTCLDY    79  73  83 E3        29.97S
MESQUITE       CLEAR     73  73 100 CALM      29.97R FOG
LANCASTER      CLEAR     74  70  89 CALM      29.97S
6HR MIN TEMP:  74; 6HR MAX TEMP:  77;

$$

TXZ091>094-102>105-117-120-121-131>134-261300-
NORTH CENTRAL TEXAS

CITY           SKY/WX    TMP DP  RH WIND       PRES   REMARKS
SHRMAN/DENISON CLEAR     76  74  93 E5        29.99S
6HR MIN TEMP:  74; 6HR MAX TEMP:  79;

GAINESVILLE    CLEAR     73  71  91 CALM      30.00S
6HR MIN TEMP:  73; 6HR MAX TEMP:  76;

BOWIE          PTCLDY    74  71  92 CALM      30.01R
6HR MIN TEMP:  73; 6HR MAX TEMP:  76;

BRIDGEPORT     PTCLDY    72  72 100 CALM      30.00R
6HR MIN TEMP:  72; 6HR MAX TEMP:  75;

DECATUR        CLEAR     72  71  97 CALM      30.00R
6HR MIN TEMP:  72; 6HR MAX TEMP:  79;

DENTON         CLEAR     73  71  93 N5        29.97R
6HR MIN TEMP:  73; 6HR MAX TEMP:  78;

MCKINNEY       PTCLDY    74  73  97 CALM      29.97R
6HR MIN TEMP:  74; 6HR MAX TEMP:  77;

GREENVILLE     PTCLDY    73  72  94 CALM      29.97S
ROCKWALL       CLOUDY    75  74  99 CALM      29.96R FOG
6HR MIN TEMP:  74; 6HR MAX TEMP:  77;

TERRELL        PTCLDY    74  72  93 CALM      29.97R
6HR MIN TEMP:  74; 6HR MAX TEMP:  77;

WAXAHACHIE     CLEAR     71  71 100 CALM      29.98S FOG
6HR MIN TEMP:  71; 6HR MAX TEMP:  74;

CLEBURNE       CLEAR     73  73 100 CALM      29.99R
GRANBURY       CLEAR     73  69  86 CALM      29.98S
6HR MIN TEMP:  73; 6HR MAX TEMP:  80;

$$

TXZ083>090-098>101-113>116-127>130-139>142-154-155-261300-
WESTERN NORTH TEXAS

CITY           SKY/WX    TMP DP  RH WIND       PRES   REMARKS
WICHITA FALLS  CLOUDY    75  71  87 SE7       29.99R
6HR MIN TEMP:  74; 6HR MAX TEMP:  79;

WF-KICKAPOO    CLOUDY    76  71  83 SE6       30.00S
6HR MIN TEMP:  76; 6HR MAX TEMP:  82;

VERNON         PTCLDY    77  69  76 E3        30.00R
6HR MIN TEMP:  77; 6HR MAX TEMP: 100; 6HR PCP:  0.01;

ABILENE        CLEAR     72  67  84 MISG      30.01R
6HR MIN TEMP:  72; 6HR MAX TEMP:  79;

ABILENE-DYESS  CLEAR     72  67  84 VRB1      30.00R
6HR MIN TEMP:  72; 6HR MAX TEMP:  80;

CISCO          PTCLDY    70  68  94 SE5       30.01R
BRECKENRIDGE   PTCLDY    73  69  87 E7        29.99R
6HR MIN TEMP:  73; 6HR MAX TEMP:  80;

GRAHAM         PTCLDY    72  70  94 CALM      29.98R
6HR MIN TEMP:  72; 6HR MAX TEMP:  79;

MINERAL WELLS  PTCLDY    73  70  90 CALM      29.96S
6HR MIN TEMP:  72; 6HR MAX TEMP:  77;

STEPHENVILLE   CLEAR     72  68  88 CALM      30.02R
6HR MIN TEMP:  71; 6HR MAX TEMP:  75;

COMANCHE       CLEAR     71  71 100 CALM      29.99R
6HR MIN TEMP:  71; 6HR MAX TEMP:  75;

BROWNWOOD      CLEAR     72  68  88 CALM      29.99R
COLEMAN        PTCLDY    71  65  84 CALM      30.00S
6HR MIN TEMP:  70; 6HR MAX TEMP:  77;

$$

TXZ143>147-156>162-174-175-261300-
CENTRAL TEXAS

CITY           SKY/WX    TMP DP  RH WIND       PRES   REMARKS
WACO           CLEAR     74  72  93 E5        29.96R FOG
6HR MIN TEMP:  74; 6HR MAX TEMP:  76;

WACO-MCGREGOR  CLOUDY    75  72  90 E3        29.96R
6HR MIN TEMP:  73; 6HR MAX TEMP:  75;

HILLSBORO      CLEAR     71  70  98 NE5       29.97R FOG
6HR MIN TEMP:  70; 6HR MAX TEMP:  72;

CORSICANA      CLEAR     75  72  90 E5        29.97R FOG
6HR MIN TEMP:  75; 6HR MAX TEMP:  77;

MEXIA          PTCLDY    72  72  99 W5        29.95S FOG
6HR MIN TEMP:  72; 6HR MAX TEMP:  73;

HEARNE         CLOUDY    73  72  99 CALM      29.96R FOG
6HR MIN TEMP:  73; 6HR MAX TEMP:  75;

CAMERON        CLOUDY    74  74  98 CALM      29.95R FOG
6HR MIN TEMP:  74; 6HR MAX TEMP:  76;

TEMPLE         CLOUDY    73  73 100 NE6       29.97R FOG
6HR MIN TEMP:  73; 6HR MAX TEMP:  75;

KILLEEN        CLOUDY    75  73  94 NW3       29.97R
6HR MIN TEMP:  73; 6HR MAX TEMP:  76;

KILLEEN-SKYLRK CLOUDY    75  74  96 NE3       29.97R
6HR MIN TEMP:  74; 6HR MAX TEMP:  75;

FORT HOOD      CLOUDY    73  72  94 E6        29.96R FOG
6HR MIN TEMP:  73; 6HR MAX TEMP:  75;

GATESVILLE     MOCLDY    73  73 100 CALM      29.99R FOG
HAMILTON       CLEAR     72  72 100 SE3       29.99S FOG
6HR MIN TEMP:  72; 6HR MAX TEMP:  75;

LAMPASAS       CLOUDY    76  74  96 CALM      29.97R
6HR MIN TEMP:  73; 6HR MAX TEMP:  76;

$$

TXZ095>097-106>112-122>126-135>138-148>153-164>167-261300-
EAST TEXAS

CITY           SKY/WX    TMP DP  RH WIND       PRES   REMARKS
PARIS          CLEAR     75  64  69 CALM      29.98S
6HR MIN TEMP:  73; 6HR MAX TEMP:  77;

SULPHUR SPRNGS CLEAR     75  74  96 CALM      29.99S FOG
6HR MIN TEMP:  75; 6HR MAX TEMP:  78;

MOUNT PLEASANT CLEAR     73  73 100 CALM      29.97F
6HR MIN TEMP:  73; 6HR MAX TEMP:  78;

GILMER         CLEAR     74  73  96 CALM      29.97R
6HR MIN TEMP:  73; 6HR MAX TEMP:  77;

MINEOLA        CLEAR     73  73 100 CALM      29.97S FOG
TYLER          CLEAR     76  72  87 CALM      29.96S
6HR MIN TEMP:  75; 6HR MAX TEMP:  77;

LONGVIEW       CLEAR     73  73 100 CALM      29.96R
6HR MIN TEMP:  73; 6HR MAX TEMP:  75;

MARSHALL       CLEAR     73  70  93 CALM      29.98S
6HR MIN TEMP:  73; 6HR MAX TEMP:  75;

ATHENS         CLEAR     72  72 100 CALM      29.95S FOG
PALESTINE      FOG       74  74 100 CALM      29.98R VSB 3/4
JACKSONVILLE   FOG       72  72 100 CALM      29.99R VSB 3/4
HENDERSON      CLEAR     72  72 100 CALM      29.97S FOG
6HR MIN TEMP:  71; 6HR MAX TEMP:  73;

CENTER         FOG       75  73  95 CALM      29.97S VSB<1/4
6HR MIN TEMP:  74; 6HR MAX TEMP:  76;

NACOGDOCHES    CLEAR    N/A N/A N/A CALM      29.95R
LUFKIN         FOG       73  73 100 CALM      29.95R VSB<1/4
6HR MIN TEMP:  73; 6HR MAX TEMP:  75;

$$

SUPPLEMENTAL OBSERVATIONS (CENTRAL)

CITY           SKY/WX    TMP DP  RH WIND       PRES   REMARKS
DENISON DAM      N/A     75  72  88 NE2         N/A
CADDO GRASSLND   N/A     73  70  88 CALM        N/A
PAT MAYSE LAKE   N/A     75  73  94 N1          N/A
GREENVILLE       N/A     75  72  88 NE3         N/A
CEDAR HILL       N/A     73  72  94 CALM        N/A
ATHENS           N/A     73  70  88 E1          N/A
LAKE LIMESTONE   N/A     73  72  94 NE3         N/A
MC1F1C2F2C3F3C4F4C5F5C6F6C7F7C8F8C9!



USA.gov is the U.S. government's official web portal to all federal, state and local government web resources and services.